When you browse on this site, cookies collect data to enhance your experience and personalize the content and advertising you see.
Visit our Privacy Policy to learn more. By continuing to use the site, you agree to this use of cookies and data.
  • In Hungary
  • List of Countries
  • For 7 days
  • Water Temperature
  • Weather Map
  • News
  • Weather Widgets
  • user-avatar
    Login

    Hourly Weather Almora

    Today, 10 December, Tuesday

    Time Temperature Precipitation Wind Pressure Humidity
    00:00 +5°C° 0 mm 0 mps 627 mmHg 86%
    01:00 +5°C° 0 mm 0 mps 627 mmHg 85%
    02:00 +5°C° 0 mm 0 mps 627 mmHg 84%
    03:00 +5°C° 0 mm 0 mps 627 mmHg 84%
    04:00 +5°C° 0 mm 0 mps 626 mmHg 84%
    05:00 +4°C° 0 mm 0 mps 626 mmHg 83%
    06:00 +6°C° 0 mm 0 mps 627 mmHg 77%
    07:00 +7°C° 0 mm 0 mps 628 mmHg 71%
    08:00 +9°C° 0 mm 0 mps 629 mmHg 65%
    09:00 +12°C° 0 mm 0 mps 629 mmHg 57%
    10:00 +14°C° 0 mm 0 mps 630 mmHg 48%
    11:00 +19°C° 0 mm 1 mps 631 mmHg 39%
    12:00 +19°C° 0 mm 1 mps 630 mmHg 39%
    13:00 +19°C° 0 mm 1 mps 629 mmHg 38%
    14:00 +18°C° 0 mm 2 mps 629 mmHg 38%
    15:00 +15°C° 0 mm 1 mps 628 mmHg 51%
    16:00 +12°C° 0 mm 1 mps 627 mmHg 64%
    17:00 +9°C° 0 mm 1 mps 625 mmHg 77%
    18:00 +9°C° 0 mm 1 mps 626 mmHg 80%
    19:00 +8°C° 0 mm 1 mps 626 mmHg 83%
    20:00 +6°C° 0 mm 0 mps 626 mmHg 86%
    21:00 +6°C° 0 mm 0 mps 626 mmHg 85%
    22:00 +5°C° 0 mm 0 mps 626 mmHg 85%
    23:00 +5°C° 0 mm 0 mps 626 mmHg 84%

    Tomorrow, 11 December, Wednesday

    Time Temperature Precipitation Wind Pressure Humidity
    00:00 +5°C° 0 mm 0 mps 625 mmHg 85%
    01:00 +5°C° 0 mm 0 mps 625 mmHg 86%
    02:00 +4°C° 0 mm 0 mps 625 mmHg 87%
    03:00 +4°C° 0 mm 0 mps 625 mmHg 86%
    04:00 +4°C° 0 mm 0 mps 625 mmHg 86%
    05:00 +4°C° 0 mm 0 mps 625 mmHg 85%
    06:00 +6°C° 0 mm 0 mps 626 mmHg 80%
    07:00 +7°C° 0 mm 0 mps 627 mmHg 75%
    08:00 +8°C° 0 mm 0 mps 628 mmHg 70%
    09:00 +11°C° 0 mm 0 mps 628 mmHg 60%
    10:00 +13°C° 0 mm 0 mps 629 mmHg 50%
    11:00 +16°C° 0 mm 0 mps 630 mmHg 41%
    12:00 +18°C° 0 mm 1 mps 629 mmHg 38%
    13:00 +18°C° 0 mm 1 mps 628 mmHg 35%
    14:00 +18°C° 0 mm 1 mps 628 mmHg 33%
    15:00 +15°C° 0 mm 1 mps 627 mmHg 43%
    16:00 +12°C° 0 mm 1 mps 626 mmHg 53%
    17:00 +9°C° 0 mm 1 mps 625 mmHg 63%
    18:00 +9°C° 0 mm 1 mps 625 mmHg 65%
    19:00 +8°C° 0 mm 1 mps 626 mmHg 67%
    20:00 +7°C° 0 mm 0 mps 626 mmHg 68%
    21:00 +7°C° 0 mm 0 mps 626 mmHg 68%
    22:00 +7°C° 0 mm 0 mps 626 mmHg 68%
    23:00 +7°C° 0 mm 0 mps 626 mmHg 67%

    Day after tomorrow, 12 December, Thursday

    Time Temperature Precipitation Wind Pressure Humidity
    00:00 +7°C° 0 mm 0 mps 626 mmHg 67%
    01:00 +7°C° 0 mm 0 mps 626 mmHg 67%
    02:00 +7°C° 0 mm 0 mps 626 mmHg 66%
    03:00 +7°C° 0 mm 0 mps 626 mmHg 68%
    04:00 +7°C° 0 mm 0 mps 626 mmHg 69%
    05:00 +7°C° 0 mm 0 mps 625 mmHg 71%
    06:00 +7°C° 0 mm 0 mps 626 mmHg 67%
    07:00 +9°C° 0 mm 1 mps 627 mmHg 64%
    08:00 +10°C° 0 mm 1 mps 628 mmHg 61%
    09:00 +10°C° 0.3 mm 1 mps 628 mmHg 65%
    10:00 +10°C° 0.3 mm 1 mps 628 mmHg 69%
    11:00 +10°C° 0.3 mm 1 mps 628 mmHg 73%
    12:00 +9°C° 0.7 mm 1 mps 627 mmHg 77%
    13:00 +9°C° 0.7 mm 1 mps 626 mmHg 81%
    14:00 +8°C° 0.7 mm 1 mps 626 mmHg 85%
    15:00 +8°C° 0.8 mm 1 mps 626 mmHg 88%
    16:00 +7°C° 0.8 mm 1 mps 625 mmHg 92%
    17:00 +7°C° 0.8 mm 1 mps 625 mmHg 95%
    18:00 +7°C° 2.3 mm 1 mps 626 mmHg 95%
    19:00 +7°C° 2.3 mm 1 mps 626 mmHg 95%
    20:00 +7°C° 2.3 mm 1 mps 627 mmHg 96%
    21:00 +7°C° 1.5 mm 1 mps 627 mmHg 95%
    22:00 +6°C° 1.5 mm 2 mps 627 mmHg 95%
    23:00 +6°C° 1.5 mm 2 mps 627 mmHg 95%

    13 December, Friday

    Time Temperature Precipitation Wind Pressure Humidity
    00:00 +5°C° 0.4 mm 2 mps 626 mmHg 95%
    01:00 +5°C° 0.4 mm 2 mps 626 mmHg 95%
    02:00 +5°C° 0.4 mm 2 mps 626 mmHg 96%
    03:00 +5°C° 0.5 mm 2 mps 626 mmHg 96%
    04:00 +6°C° 0.5 mm 1 mps 626 mmHg 96%
    05:00 +6°C° 0.5 mm 1 mps 625 mmHg 96%
    06:00 +6°C° 1.1 mm 1 mps 626 mmHg 95%
    07:00 +7°C° 1.1 mm 1 mps 626 mmHg 95%
    08:00 +6°C° 1.1 mm 2 mps 627 mmHg 94%
    09:00 +7°C° 1.8 mm 1 mps 627 mmHg 95%
    10:00 +7°C° 1.8 mm 1 mps 627 mmHg 95%
    11:00 +7°C° 1.8 mm 1 mps 626 mmHg 95%
    12:00 +7°C° 3 mm 1 mps 626 mmHg 95%
    13:00 +5°C° 3 mm 2 mps 626 mmHg 95%
    14:00 +5°C° 3 mm 2 mps 625 mmHg 95%
    15:00 +5°C° 0.8 mm 2 mps 625 mmHg 95%
    16:00 +4°C° 0.8 mm 2 mps 625 mmHg 95%
    17:00 +4°C° 0.8 mm 2 mps 625 mmHg 96%
    18:00 +5°C° 0.7 mm 1 mps 626 mmHg 96%
    19:00 +5°C° 0.7 mm 1 mps 626 mmHg 96%
    20:00 +5°C° 0.7 mm 1 mps 627 mmHg 96%
    21:00 +5°C° 1 mm 1 mps 627 mmHg 96%
    22:00 +5°C° 1 mm 1 mps 627 mmHg 96%
    23:00 +5°C° 1 mm 1 mps 627 mmHg 96%

    14 December, Saturday

    Time Temperature Precipitation Wind Pressure Humidity
    00:00 +5°C° 0.1 mm 1 mps 627 mmHg 97%
    01:00 +5°C° 0.1 mm 1 mps 627 mmHg 97%
    02:00 +4°C° 0.1 mm 1 mps 627 mmHg 97%
    03:00 +4°C° 0 mm 1 mps 627 mmHg 97%
    04:00 +4°C° 0 mm 1 mps 627 mmHg 97%
    05:00 +4°C° 0 mm 1 mps 627 mmHg 97%
    06:00 +5°C° 0 mm 1 mps 628 mmHg 95%
    07:00 +5°C° 0 mm 1 mps 629 mmHg 93%
    08:00 +6°C° 0 mm 1 mps 629 mmHg 92%
    09:00 +8°C° 0 mm 1 mps 630 mmHg 84%
    10:00 +9°C° 0 mm 0 mps 631 mmHg 77%
    11:00 +11°C° 0 mm 0 mps 631 mmHg 69%
    12:00 +12°C° 0 mm 0 mps 631 mmHg 65%
    13:00 +12°C° 0 mm 0 mps 631 mmHg 61%
    14:00 +12°C° 0 mm 0 mps 630 mmHg 57%
    15:00 +11°C° 0 mm 0 mps 630 mmHg 65%
    16:00 +9°C° 0 mm 0 mps 629 mmHg 73%
    17:00 +7°C° 0 mm 0 mps 628 mmHg 80%
    18:00 +6°C° 0 mm 0 mps 629 mmHg 82%
    19:00 +6°C° 0 mm 0 mps 629 mmHg 83%
    20:00 +6°C° 0 mm 1 mps 629 mmHg 85%
    21:00 +6°C° 0 mm 1 mps 629 mmHg 84%
    22:00 +5°C° 0 mm 1 mps 629 mmHg 83%
    23:00 +5°C° 0 mm 1 mps 629 mmHg 82%

    15 December, Sunday

    Time Temperature Precipitation Wind Pressure Humidity
    00:00 +5°C° 0 mm 1 mps 629 mmHg 80%
    01:00 +5°C° 0 mm 1 mps 629 mmHg 78%
    02:00 +5°C° 0 mm 1 mps 628 mmHg 76%
    03:00 +4°C° 0 mm 0 mps 628 mmHg 74%
    04:00 +4°C° 0 mm 0 mps 628 mmHg 72%
    05:00 +5°C° 0 mm 0 mps 628 mmHg 71%
    06:00 +5°C° 0 mm 0 mps 628 mmHg 69%
    07:00 +7°C° 0 mm 1 mps 629 mmHg 68%
    08:00 +8°C° 0 mm 1 mps 629 mmHg 66%
    09:00 +10°C° 0 mm 1 mps 630 mmHg 60%
    10:00 +11°C° 0 mm 0 mps 630 mmHg 53%
    11:00 +14°C° 0 mm 0 mps 631 mmHg 46%
    12:00 +14°C° 0 mm 0 mps 630 mmHg 46%
    13:00 +14°C° 0 mm 0 mps 630 mmHg 46%
    14:00 +14°C° 0 mm 1 mps 629 mmHg 45%
    15:00 +13°C° 0.1 mm 1 mps 629 mmHg 55%
    16:00 +10°C° 0.1 mm 0 mps 629 mmHg 65%
    17:00 +8°C° 0.1 mm 0 mps 628 mmHg 75%
    18:00 +7°C° 0 mm 0 mps 628 mmHg 75%
    19:00 +7°C° 0 mm 1 mps 629 mmHg 76%
    20:00 +7°C° 0 mm 1 mps 629 mmHg 76%
    21:00 +6°C° 0 mm 1 mps 629 mmHg 76%
    22:00 +6°C° 0 mm 1 mps 629 mmHg 75%
    23:00 +5°C° 0 mm 1 mps 629 mmHg 74%
    Show more